DMSP 5D-2 F13 DEB, 42322

Orbit data source: Space-Track

DMSP 5D-2 F13 DEB, 42322 is space debris in SSO originally from a launch on Fri, 24 Mar 1995 UTC launched from the Air Force Western Test Range (AFWTR). Debris objects in space refer to the collection of defunct objects orbiting the Earth. Examples of debris include non-operational satellites, rocket bodies, and fragments generated from explosions, collisions, or faulty payload assembly.

Loading next visibility...
DMSP 5D-2 F13 DEB details
Identifier
42322, 1995-015JQ
Orbit
SSO
Last TLE update4 months ago
Origin
Flag of USUSAF SMC (US)
ManufacturerUnknown
MissionSpacecraft
Bus & MotorUnknown
MassUnknown
Launch date (UTC)
1995-03-24 (30 years ago)
Launch vehicleUnknown
Launch site
Air Force Western Test Range (AFWTR)
Object type
Payload
Rocket body
Debris
Shape & HBRUnknown
Radar Cross SectionSmall (<0.1 m²)

Expand to show TLE details & history

TLE from 4 months ago
0 DMSP 5D-2 F13 DEB
1 42322U 95015JQ  24226.86945799  .00038918  00000-0  12209-1 0  9990
2 42322  98.7928 247.2861 0036838 246.8893 112.8410 14.39974841484683
Epoch: 2024-08-13T20:52Z
Definitive object data (Epoch: 2024-08-13T20:52:01.17Z)
Latitude-0°
Longitude-28.49904°
Altitude771.81 km
Speed7.463 km/s
True Right ascension16h 29m 08s
True Declination0° 00' 00"
Sunlit
Object was in daylight at TLE epoch
Visualization TLE readout
Latitude72.71893°
Longitude58.12792°
Altitude762.859 km
Speed7.467 km/s
Apparent Right ascension19h 42m 48s
Apparent Declination23° 05' 60"
Sunlit
Object is in daylight
Visualization observer readout
Local Sidereal Time06:40:29
Azimuth344.138° N
Elevation-25.329°
Doppler factor1
Orbital elements
Apogee altitude781.997 km
Perigee altitude729.438 km
Semi-major axis7,133.855 km
Eccentricity0.0036838
Inclination98.7928°
RAAN247.2861°
Arg. of periapsis246.8893°
True anomaly113.22933°
Mean anomaly112.841°
Eccentric anomaly113.03524°
Mean motion3.60211 °/min
BSTAR0.012209
Orbital period99.94 mins
Loading maneuver chart data...

DMSP 5D-2 F13 DEB Visibility forecast

Observer location: undefined°, undefined

Span
Click to sort rows by Start time (UTC) header in descending order
Start Az.
Max El. time (UTC)
Max El. Az.
Max El.
End time (UTC)
End Az.
7 mins2024-12-04 13:59:19.037Z40.391° NE2024-12-04 14:03:19.037Z106.775° ESE26.822°2024-12-04 14:06:19.037Z152.425° SSE
6 mins2024-12-04 15:38:19.037Z338.499° N2024-12-04 15:41:19.037Z284.933° WNW25.653°2024-12-04 15:44:19.037Z240.229° WSW
7 mins2024-12-05 01:08:19.037Z125.642° SE2024-12-05 01:11:19.037Z69.056° E31.196°2024-12-05 01:15:19.037Z5.735° NNE
6 mins2024-12-05 02:47:19.037Z228.546° WSW2024-12-05 02:49:19.037Z260.737° W21.745°2024-12-05 02:53:19.037Z316.74° NNW
|